Regional Weather Roundup
Issued by NWS Sioux Falls, SD

Home | Current Version | Previous Version | Text Only | Print | Product List | Glossary On
Versions: 1 2 3 4 5 6 7 8 9 10 11 12 13 14 15 16 17 18 19 20 21 22 23 24 25 26 27 28 29 30 31 32 33 34 35 36 37 38 39 40 41 42 43 44 45 46 47 48 49 50
000
ASUS43 KFSD 030110
RWRFSD

WEATHER ROUNDUP FOR SE SOUTH DAKOTA/SW MINNESOTA/NW IOWA
NATIONAL WEATHER SERVICE SIOUX FALLS SD
800 PM CDT SUN AUG 02 2015

NOTE: "FAIR" INDICATES FEW OR NO CLOUDS BELOW 12,000 FEET WITH NO
SIGNIFICANT WEATHER AND OR OBSTRUCTIONS TO VISIBILITY.


SDZ038>040-050-052>070-030200-
SOUTHEAST SOUTH DAKOTA

CITY           SKY/WX    TMP DP  RH WIND       PRES   REMARKS
BROOKINGS      CLEAR     73  57  56 NW8       29.90R
CHAMBERLAIN    CLEAR     80  62  54 E3        29.90R
HURON          CLEAR     77  59  53 N8        29.87R
MADISON        FAIR      73  63  68 N6        29.89R
MITCHELL       CLEAR     78  63  59 NE6       29.88R
SIOUX FALLS    CLEAR     77  61  57 N8        29.87R
WINNER         FAIR      83  59  44 E6        29.91S
YANKTON        CLEAR     81  64  57 N6        29.85R
$$

MNZ071-072-080-081-089-090-097-098-030200-
SOUTHWEST MINNESOTA

CITY           SKY/WX    TMP DP  RH WIND       PRES   REMARKS
FAIRMONT       CLEAR     75  55  50 NW10      29.82R
JACKSON        CLEAR     73  61  64 NW9G16    29.86R
LUVERNE        CLEAR     77  61  57 N3        29.87R
MARSHALL       CLEAR     73  55  53 NW7       29.87R
MONTEVIDEO     CLEAR     73  57  56 N8        29.85R
PIPESTONE      CLEAR     75  61  60 NE6       29.88R
REDWOOD FALLS  CLEAR     76  57  51 NW8       29.82R
TRACY          CLEAR     73  57  56 N8        29.86R
WINDOM         CLEAR     73  57  56 NW10      29.85R
WORTHINGTON    CLEAR     73  59  60 N10       29.87R
$$

IAZ001>003-012>014-020>022-031-032-NEZ013-014-SDZ071-030200-
NORTHWEST IOWA

CITY           SKY/WX    TMP DP  RH WIND       PRES   REMARKS
CHEROKEE       CLEAR     79  68  68 NW5       29.82S
DENISON        CLEAR     81  73  78 NW5       29.81R
ESTHERVILLE    CLEAR     75  61  61 N15       29.83R
LE MARS        CLEAR     79  70  73 N6        29.85R
ORANGE CITY    CLEAR     79  64  61 N7        29.85R
SHELDON        CLEAR     75  66  73 NW7       29.84R
SIOUX CITY     NOT AVBL
SPENCER        CLEAR     80  61  52 N10       29.84R
STORM LAKE     CLEAR     79  70  73 NW7       29.83R
$$

ABBREVIATIONS USED IN REMARKS
   TC - TEMPERATURE IN CELSIUS
  WCI - WIND CHILL INDEX
   HX - HEAT INDEX
  VSB - VISIBILITY




USA.gov is the U.S. government's official web portal to all federal, state and local government web resources and services.